Location: Newark
(26.7500°S, 133.2500°E)
Time: 08:07:47
(UTC+00:00)

Hubble Space Telescope - Visible Passes

Search period start: 11 December 2019 00:00
Search period end: 21 December 2019 00:00
Orbit: 536 x 540 km, 28.5° (Epoch: 10 December)

Date Brightness Start Highest point End Pass type
(mag) Time Alt. Az. Time Alt. Az. Time Alt. Az.
11 Dec 0.8 11:26:01 10° W 11:30:10 76° S 11:31:57 33° ESE visible
12 Dec 0.9 11:15:28 10° W 11:19:38 71° S 11:22:04 23° ESE visible
12 Dec 3.6 12:56:47 10° W 12:57:24 14° WSW 12:57:24 14° WSW visible
13 Dec 1.0 11:04:55 10° W 11:09:04 68° S 11:12:06 18° E visible
13 Dec 3.2 12:46:12 10° W 12:47:25 19° W 12:47:25 19° W visible
14 Dec 1.0 10:54:22 10° W 10:58:31 68° S 11:02:01 14° E visible
14 Dec 2.8 12:35:38 10° W 12:37:22 24° W 12:37:22 24° W visible
15 Dec 1.0 10:43:49 10° W 10:47:58 69° S 10:51:55 11° E visible
15 Dec 2.4 12:25:04 10° W 12:27:15 29° W 12:27:15 29° W visible
16 Dec 1.0 10:33:15 10° W 10:37:24 72° S 10:41:34 10° E visible
16 Dec 2.1 12:14:31 10° W 12:17:05 34° W 12:17:05 34° W visible
17 Dec 0.9 10:22:41 10° W 10:26:51 78° S 10:31:01 10° E visible
17 Dec 1.8 12:04:00 10° W 12:06:56 36° WNW 12:06:56 36° WNW visible
18 Dec 1.8 11:53:31 10° W 11:56:46 34° NW 11:56:46 34° NW visible
19 Dec 2.0 11:43:06 10° W 11:46:37 29° NNW 11:46:37 29° NNW visible
20 Dec 2.3 11:32:45 10° WNW 11:36:03 23° NNW 11:36:30 22° NNW visible
